Torna al catalogo

ONEWEB-0026

AttivoComunicazioniPO
NORAD 45139·PAYLOAD·🇬🇧 United Kingdom

Lanciato Feb 6, 2020 da Baikonur Cosmodrome

Loading…

Prossimi Passaggi (prossime 24 ore)

TLE

AggiornatoSource: CelesTrak SupGP

Epoca: Sep 14, 2026, 14:27 UTC

1 45139C 20008J   26257.60227269  .00001425  00000+0  40257-2 0  2576
2 45139  87.8981   3.2901 0001669  98.9879  13.2092 13.11418572    13

Traccia ONEWEB-0026 in tempo reale con AllMySat

Download on the App Store